Change the Weather History Date:

Wednesday, March 6, 2013

  Actual Average Record
Temperature  
Mean Temperature 36 °F 51 °F  
Max Temperature 42 °F 61 °F 71 °F (2004)
Min Temperature 30 °F 40 °F 27 °F (2002)
Degree Days  
Heating Degree Days 29 15  
Month to date heating degree days 92  
Since 1 July heating degree days 2493  
Cooling Degree Days 0 0  
Month to date cooling degree days 0  
Year to date cooling degree days 0  
Moisture  
Dew Point 25 °F    
Average Humidity 64    
Maximum Humidity 87    
Minimum Humidity 53    
Precipitation  
Precipitation 0.00 in 0.19 in 1.30 in (2003)
Month to date precipitation 1.07  
Year to date precipitation 10.88  
Sea Level Pressure  
Sea Level Pressure 30.08 in    
Wind  
Wind Speed 17 mph (NW)    
Max Wind Speed 25 mph    
Max Gust Speed 44 mph    
Visibility 9 miles    
Events Snow    
T = Trace of Precipitation, MM = Missing Value Source: NWS Daily Summary

Daily Weather History Graph

Daily Weather History Graph

Search for Another Location

Airport or City:

Trip Planner

Search our weather history database for the weather conditions in past years. The results will help you decide how hot, cold, wet, or windy it might be!

Date:

Astronomy

Mar. 06, 2013 Rise Set
Actual Time 6:59 AM EST 6:38 PM EST
Civil Twilight 6:34 AM EST 7:03 PM EST
Nautical Twilight 6:05 AM EST 7:31 PM EST
Astronomical Twilight 5:36 AM EST 8:00 PM EST
Moon 2:55 AM EST (3/6) 1:30 PM EST (3/6)
Length of Visible Light 12h 28m
Length of Day
11h 38m
Waning Crescent, 30% of the Moon is Illuminated
Mar 6
Waning Crescent
Mar 11
New
Mar 19
First Quarter
Mar 27
Full
Apr 3
Last Quarter

Hourly Weather History & Observations

Time (EST) Temp. Windchill Dew Point Humidity Pressure Visibility Wind Dir Wind Speed Gust Speed Precip Events Conditions
12:53 AM 39.0 °F 29.9 °F 26.1 °F 60% 29.91 in 10.0 mi WNW 17.3 mph 32.2 mph N/A   Mostly Cloudy
1:53 AM 37.9 °F 30.0 °F 27.0 °F 65% 29.90 in 10.0 mi West 12.7 mph 20.7 mph N/A   Overcast
2:51 AM 33.8 °F 21.6 °F 30.2 °F 87% 29.91 in 1.8 mi WNW 23.0 mph 43.7 mph 0.00 in Snow Light Snow
2:53 AM 34.0 °F 23.0 °F 30.0 °F 85% 29.93 in 1.8 mi WNW 18.4 mph 43.7 mph 0.00 in Snow Light Snow
2:57 AM 33.8 °F 21.9 °F 30.2 °F 87% 29.92 in 3.0 mi NW 21.9 mph 40.3 mph 0.00 in Snow Light Snow
3:25 AM 33.8 °F 21.0 °F 26.6 °F 75% 29.92 in 10.0 mi WNW 25.3 mph 36.8 mph 0.00 in   Mostly Cloudy
3:53 AM 33.1 °F 23.0 °F 24.1 °F 70% 29.94 in 10.0 mi WNW 15.0 mph 26.5 mph 0.00 in   Clear
4:53 AM 32.0 °F 23.6 °F 19.0 °F 59% 29.97 in 10.0 mi WNW 10.4 mph 19.6 mph N/A   Clear
5:53 AM 30.9 °F 19.4 °F 18.0 °F 59% 29.99 in 10.0 mi WNW 17.3 mph 28.8 mph N/A   Clear
6:53 AM 32.0 °F 20.8 °F 19.0 °F 59% 30.01 in 10.0 mi WNW 17.3 mph 29.9 mph N/A   Overcast
7:53 AM 33.1 °F 22.6 °F 21.0 °F 61% 30.03 in 10.0 mi WNW 16.1 mph 26.5 mph N/A   Overcast
8:53 AM 34.0 °F 22.1 °F 21.9 °F 61% 30.06 in 10.0 mi WNW 21.9 mph 32.2 mph N/A   Overcast
9:53 AM 34.0 °F 22.1 °F 23.0 °F 64% 30.08 in 10.0 mi West 21.9 mph 29.9 mph N/A   Overcast
10:53 AM 37.0 °F 26.4 °F 23.0 °F 57% 30.09 in 10.0 mi WNW 20.7 mph 29.9 mph N/A   Overcast
11:53 AM 37.0 °F 28.9 °F 23.0 °F 57% 30.12 in 10.0 mi NW 12.7 mph 28.8 mph N/A   Overcast
12:53 PM 37.9 °F 27.3 °F 23.0 °F 55% 30.14 in 10.0 mi NNW 21.9 mph 32.2 mph N/A   Overcast
1:53 PM 39.0 °F 29.3 °F 24.1 °F 55% 30.13 in 10.0 mi NW 19.6 mph 28.8 mph N/A   Overcast
2:53 PM 39.9 °F 30.5 °F 25.0 °F 55% 30.14 in 10.0 mi NW 19.6 mph 25.3 mph N/A   Overcast
3:53 PM 41.0 °F 31.9 °F 26.1 °F 55% 30.14 in 10.0 mi NW 19.6 mph 28.8 mph N/A   Overcast
4:53 PM 42.1 °F 35.2 °F 26.1 °F 53% 30.15 in 10.0 mi NW 12.7 mph 26.5 mph N/A   Partly Cloudy
5:53 PM 41.0 °F 32.5 °F 25.0 °F 53% 30.17 in 10.0 mi NNW 17.3 mph 21.9 mph N/A   Clear
6:53 PM 39.0 °F 30.6 °F 25.0 °F 57% 30.20 in 10.0 mi NW 15.0 mph 24.2 mph N/A   Scattered Clouds
7:53 PM 37.9 °F 30.5 °F 26.1 °F 62% 30.20 in 10.0 mi NNW 11.5 mph 20.7 mph N/A   Overcast
8:53 PM 37.0 °F 27.7 °F 26.1 °F 65% 30.21 in 10.0 mi NW 16.1 mph 26.5 mph N/A   Overcast
9:06 PM 37.4 °F 29.8 °F 26.6 °F 65% 30.16 in 10.0 mi NNW 11.5 mph 21.9 mph N/A   Overcast
9:53 PM 37.0 °F 28.5 °F 26.1 °F 65% 30.22 in 10.0 mi NNW 13.8 mph 19.6 mph N/A   Overcast
10:53 PM 36.0 °F 26.7 °F 26.1 °F 67% 30.22 in 10.0 mi NW 15.0 mph 25.3 mph N/A   Overcast
11:17 PM 35.6 °F 27.1 °F 26.6 °F 70% 30.16 in 10.0 mi North 12.7 mph - N/A   Scattered Clouds
11:53 PM 34.0 °F 26.0 °F 27.0 °F 75% 30.20 in 10.0 mi NNW 10.4 mph - N/A   Partly Cloudy